DW0931 Weather Reports


Display with metric or nautical units.
time (UTC)temp
F
wind
direction
speed
MPH
gust
MPH
rain 1hr
in
rain 24hr
in
rain mn
in
humidity
%
barometer
mb
20191205142650 50 154 0.0 0.0 0.00 0.00 0.00 79 1018.0
20191205141645 51 154 0.0 0.0 0.00 0.00 0.00 79 1018.0
20191205140628 51 154 0.0 0.0 0.00 0.00 0.00 78 1017.9
20191205135622 51 154 0.0 0.0 0.00 0.00 0.00 78 1017.7
20191205134612 51 154 0.0 0.0 0.00 0.00 0.00 77 1017.6
20191205133604 51 154 0.0 0.0 0.00 0.00 0.00 77 1017.2
20191205132538 51 154 0.0 0.0 0.00 0.00 0.00 77 1017.2
20191205131522 52 154 0.0 0.0 0.00 0.00 0.00 77 1017.1
20191205130504 52 154 0.0 0.0 0.00 0.00 0.00 77 1016.8
20191205125451 52 154 0.0 0.0 0.00 0.00 0.00 77 1016.7
20191205124451 52 154 0.0 0.0 0.00 0.00 0.00 76 1016.6
20191205123438 53 154 0.0 0.0 0.00 0.00 0.00 76 1016.6
20191205122422 53 154 0.0 0.0 0.00 0.00 0.00 76 1016.5
20191205121350 53 154 0.0 0.0 0.00 0.00 0.00 76 1016.4
20191205120350 53 154 0.0 0.0 0.00 0.00 0.00 75 1016.5
20191205115345 53 154 0.0 0.0 0.00 0.00 0.00 75 1016.5
20191205114336 53 154 0.0 0.0 0.00 0.00 0.00 76 1016.4
20191205113336 53 154 0.0 0.0 0.00 0.00 0.00 75 1016.4
20191205112305 53 154 0.0 0.0 0.00 0.00 0.00 75 1016.3
20191205111304 54 154 0.0 0.0 0.00 0.00 0.00 75 1016.2
20191205110248 54 154 0.0 0.0 0.00 0.00 0.00 75 1016.2
20191205105244 54 154 0.0 0.0 0.00 0.00 0.00 75 1016.2
20191205104228 54 154 0.0 0.0 0.00 0.00 0.00 75 1016.2
20191205103210 54 154 0.0 0.0 0.00 0.00 0.00 74 1016.3
20191205102149 54 154 0.0 0.0 0.00 0.00 0.00 74 1016.4
20191205101150 54 154 0.0 0.0 0.00 0.00 0.00 74 1016.3
20191205100148 54 154 0.0 0.0 0.00 0.00 0.00 74 1016.3
20191205095136 54 154 0.0 0.0 0.00 0.00 0.00 73 1016.3
20191205094110 54 154 0.0 0.0 0.00 0.00 0.00 73 1016.2
20191205093052 54 154 0.0 0.0 0.00 0.00 0.00 73 1016.1
20191205092044 54 154 0.0 0.0 0.00 0.00 0.00 72 1016.0
20191205091044 54 154 0.0 0.0 0.00 0.00 0.00 72 1015.9
20191205090041 54 154 0.0 0.0 0.00 0.00 0.00 71 1015.9
20191205085042 55 154 0.0 0.0 0.00 0.00 0.00 71 1015.9
20191205084043 55 154 0.0 0.0 0.00 0.00 0.00 70 1015.5
20191205083016 55 154 0.0 0.0 0.00 0.00 0.00 69 1015.7
20191205081954 55 154 0.0 0.0 0.00 0.00 0.00 68 1015.8
20191205080949 56 154 0.0 0.0 0.00 0.00 0.00 68 1015.5
20191205075950 56 154 0.0 0.0 0.00 0.00 0.00 68 1015.5
20191205074949 56 154 0.0 0.0 0.00 0.00 0.00 68 1015.4
20191205073950 56 154 0.0 0.0 0.00 0.00 0.00 68 1015.7
20191205072946 56 154 0.0 0.0 0.00 0.00 0.00 68 1015.7
20191205071946 56 154 0.0 0.0 0.00 0.00 0.00 67 1015.8
20191205070930 56 154 0.0 0.0 0.00 0.00 0.00 66 1015.8
20191205065926 56 154 0.0 0.0 0.00 0.00 0.00 65 1015.7
20191205064907 56 154 0.0 0.0 0.00 0.00 0.00 63 1015.7
20191205063855 57 154 0.0 0.0 0.00 0.00 0.00 62 1015.7
20191205062846 57 154 0.0 0.0 0.00 0.00 0.00 60 1015.8
20191205061844 58 154 0.0 0.0 0.00 0.01 0.00 60 1015.7
20191205060845 58 154 0.0 0.0 0.00 0.01 0.00 59 1015.4
20191205055842 58 154 0.0 0.0 0.00 0.01 0.00 59 1015.5
20191205054821 58 154 0.0 0.0 0.00 0.01 0.00 59 1015.5
20191205053748 58 154 0.0 0.0 0.00 0.01 0.00 59 1015.5
20191205052726 58 154 0.0 0.0 0.00 0.01 0.00 59 1015.3
20191205051711 58 154 0.0 0.0 0.00 0.01 0.00 58 1015.3
20191205050657 59 154 0.0 0.0 0.00 0.01 0.00 57 1015.3
20191205045655 59 154 0.0 0.0 0.00 0.01 0.00 57 1015.2
20191205044633 59 154 0.0 0.0 0.00 0.01 0.00 57 1015.3
20191205043605 59 154 0.0 0.0 0.00 0.01 0.00 56 1015.2
20191205042554 59 154 0.0 0.0 0.00 0.01 0.00 54 1015.2
20191205041549 59 154 0.0 0.0 0.00 0.01 0.00 54 1015.0
20191205040548 60 154 0.0 0.0 0.00 0.01 0.00 54 1014.9
20191205035549 60 154 0.0 0.0 0.00 0.01 0.00 54 1014.7
20191205034511 60 154 0.0 0.0 0.00 0.01 0.00 54 1014.7
20191205033457 60 154 0.0 0.0 0.00 0.01 0.00 54 1014.6
20191205032447 60 154 0.0 0.0 0.00 0.01 0.00 54 1014.5
20191205031443 60 154 0.0 0.0 0.00 0.01 0.00 52 1014.4
20191205030436 61 154 0.0 0.0 0.00 0.01 0.00 52 1014.2
20191205025423 61 154 0.0 4.0 0.00 0.01 0.00 53 1014.2
20191205024411 62 154 0.0 2.0 0.00 0.01 0.00 55 1014.2
20191205023356 62 154 0.0 0.0 0.00 0.01 0.00 57 1014.2
20191205022354 62 154 0.0 0.0 0.00 0.01 0.00 57 1013.8
20191205021354 62 154 0.0 0.0 0.00 0.01 0.00 57 1013.8
20191205020347 63 154 0.0 0.0 0.00 0.01 0.00 56 1013.7
20191205015348 63 154 0.0 0.0 0.00 0.01 0.00 56 1013.5
20191205014347 63 154 0.0 0.0 0.00 0.01 0.00 56 1013.4
20191205013347 64 154 0.0 0.0 0.00 0.01 0.00 56 1013.5
20191205012335 65 154 0.0 0.0 0.00 0.01 0.00 55 1013.4
20191205011318 65 154 0.0 1.0 0.00 0.01 0.00 52 1013.3
20191205010310 66 154 0.0 5.0 0.00 0.01 0.00 49 1013.2
20191205005309 66 154 0.0 0.0 0.00 0.01 0.00 46 1013.0
20191205004309 66 154 0.0 5.0 0.00 0.01 0.00 44 1012.9
20191205003233 67 154 0.0 2.0 0.00 0.01 0.00 43 1012.9
20191205002231 67 154 0.0 5.0 0.00 0.01 0.00 42 1012.7
20191205001213 67 154 0.0 6.0 0.00 0.01 0.00 42 1012.8
20191205000213 68 154 0.0 0.0 0.00 0.01 0.00 41 1012.7
20191204235200 68 154 0.0 0.0 0.00 0.01 0.00 41 1012.7
20191204234149 68 154 0.0 0.0 0.00 0.01 0.00 40 1012.5
20191204233121 69 154 0.0 0.0 0.00 0.01 0.00 39 1012.0
20191204232121 69 154 0.0 0.0 0.00 0.01 0.00 38 1011.9
20191204231116 69 154 0.0 7.0 0.00 0.01 0.00 37 1011.9
20191204230117 69 154 1.0 7.0 0.00 0.01 0.00 36 1011.9
20191204225055 70 154 0.0 7.0 0.00 0.01 0.00 36 1012.0
20191204224053 70 154 0.0 6.0 0.00 0.01 0.00 36 1012.3
20191204223053 71 154 1.0 7.0 0.00 0.01 0.00 35 1012.4
20191204222050 71 154 1.0 8.0 0.00 0.01 0.00 34 1012.3
20191204221047 71 153 0.0 5.0 0.00 0.01 0.00 34 1012.3
20191204220032 72 153 0.0 1.0 0.00 0.01 0.00 34 1012.2
20191204215021 72 153 0.0 0.0 0.00 0.01 0.00 34 1012.3
20191204214021 72 153 0.0 5.0 0.00 0.01 0.00 32 1012.2
20191204213020 72 153 1.0 6.0 0.00 0.01 0.00 34 1012.3
20191204212014 72 153 1.0 7.0 0.00 0.01 0.00 34 1012.5
20191204211015 72 153 1.0 8.0 0.00 0.01 0.00 34 1012.4
20191204205953 72 153 1.0 6.0 0.00 0.01 0.00 35 1012.4
20191204204953 72 153 2.0 8.0 0.00 0.01 0.00 33 1012.5
20191204203952 72 154 1.0 7.0 0.00 0.01 0.00 35 1012.9
20191204202950 72 153 2.0 7.0 0.00 0.01 0.00 36 1013.1
20191204201945 71 153 1.0 7.0 0.00 0.01 0.00 36 1013.3
20191204200946 72 152 3.0 10.0 0.00 0.01 0.00 35 1013.5
20191204195944 72 152 2.0 9.0 0.00 0.01 0.00 35 1013.7
20191204194944 71 134 1.0 8.0 0.00 0.01 0.00 36 1014.1
20191204193952 70 113 0.0 6.0 0.00 0.01 0.00 39 1014.2
20191204192941 69 109 0.0 5.0 0.00 0.01 0.00 43 1014.4
20191204191926 69 106 0.0 0.0 0.00 0.01 0.00 45 1014.7
20191204190911 69 106 0.0 7.0 0.00 0.01 0.00 47 1014.9
20191204185911 68 102 0.0 6.0 0.00 0.01 0.00 49 1015.2
20191204184903 68 101 0.0 4.0 0.00 0.01 0.00 50 1015.3
20191204183901 67 101 0.0 5.0 0.00 0.01 0.00 50 1015.7
20191204182901 67 101 0.0 0.0 0.00 0.01 0.00 51 1015.9
20191204181850 67 101 0.0 1.0 0.00 0.01 0.00 50 1016.0
20191204180848 67 101 0.0 0.0 0.00 0.01 0.00 50 1016.0
20191204175848 66 101 0.0 4.0 0.00 0.01 0.00 51 1016.2
20191204174848 65 101 0.0 5.0 0.00 0.01 0.00 55 1016.2
20191204173835 64 101 0.0 7.0 0.00 0.01 0.00 58 1016.4
20191204172834 62 101 0.0 7.0 0.00 0.01 0.00 61 1016.4
20191204171826 60 101 0.0 0.0 0.00 0.01 0.00 66 1016.4
20191204170822 59 101 0.0 0.0 0.00 0.01 0.00 67 1016.6
20191204165821 58 101 0.0 0.0 0.00 0.01 0.00 68 1016.7
20191204164801 58 101 0.0 0.0 0.00 0.01 0.00 69 1016.6
20191204163758 58 101 0.0 0.0 0.00 0.01 0.00 71 1016.8
20191204162751 58 101 0.0 0.0 0.00 0.01 0.00 72 1016.8
20191204161746 58 101 0.0 0.0 0.00 0.01 0.00 74 1016.7
20191204160747 58 101 0.0 0.0 0.00 0.01 0.00 73 1016.8
20191204155718 58 101 0.0 0.0 0.00 0.01 0.00 73 1016.6
20191204154707 58 101 0.0 0.0 0.00 0.01 0.00 72 1016.4
20191204153654 58 101 0.0 6.0 0.00 0.01 0.00 74 1016.3
20191204152651 58 100 2.0 11.0 0.00 0.01 0.00 74 1016.0
20191204151651 57 105 1.0 7.0 0.00 0.01 0.00 74 1015.9